Location: Dittelbrunn
(50.0738°N, 10.2196°E)
Time: 04:00:29
(UTC+00:00)

CENTAUR R/B - Pass Details

Date: 18 September 2020
Orbit: 755 x 1433 km, 63.4° (Epoch: 02 October)

Event Time Altitude Azimuth Distance (km) Brightness Sun altitude
Rises 21:14:12 0° 314° (NW) 4,196 6.9 -32.6°
Reaches altitude 10° 21:17:11 10° 305° (NW) 3,312 6.0 -32.8°
Maximum altitude 21:24:15 33° 246° (WSW) 2,153 4.2 -33.5°
Enters shadow 21:25:43 31° 228° (SW) 2,237 4.2 -33.6°
